Zurück zum Katalog

THOR ABLESTAR DEB

AktivLEO
NORAD 48819·DEBRIS·🇺🇸 United States

Gestartet Jun 29, 1961 von Cape Canaveral Space Force Station

Loading…

Nächste Überflüge (nächste 24 Stunden)

TLE

AktuellSource: Space-Track

Epoche: Sep 13, 2026, 18:01 UTC

1 48819U 61015MX  26256.75105656  .00000112  00000-0  16134-3 0  9991
2 48819  66.5339 254.2100 0022056  20.6962 339.5001 13.87281784648499

Verfolge THOR ABLESTAR DEB in Echtzeit mit AllMySat

Download on the App Store